Погода в Манже

Мадагаскар     21°25′58″S   44°19′34″E
темп.,
°C
ветер,
м/с
пор.,
м/с
влажн.,
%
обл.,
%
осадки,
мм/ч
давл.,
гПа
погр.,
м
4 июля, пн
пн400:00+15вюв24560 0.0 102356
03:00+13юв38770 0.0 1023134
06:00+13вюв39860 0.0 1023173
09:00+19вюв48500 0.0 1024421
12:00+26вюв33280 0.0 10231245
15:00+29юв23200 0.0 10201718
18:00+22юв22290 0.0 102023
21:00+16юз11490 0.0 102216
5 июля, вт
вт500:00+16юв22420 0.0 102226
03:00+15вюв310620 0.0 1020181
06:00+14вюв38780 0.0 1021136
09:00+23в36500 0.0 1022400
12:00+30ссв33290 0.0 10202056
15:00+30с23260 0.0 10182584
18:00+22з37442 0.0 1019171
21:00+17юз11720 0.0 102113
6 июля, ср
ср600:00+16ююв22720 0.0 102124
03:00+16вюв24710 0.0 102062
06:00+15вюв39750 0.0 1021156
09:00+23в36500 0.0 1022403
12:00+30всв22290 0.0 10201976
15:00+31ссв11220 0.0 10182518
18:00+21зюз37630 0.0 1020196
21:00+17юз12820 0.0 102213
7 июля, чт
чт700:00+17ююв24790 0.0 102259
03:00+17юв39680 0.0 1021190
06:00+15вюв38730 0.0 1022143
09:00+22вюв46550 0.0 1023392
12:00+29юв33300 0.0 10211524
15:00+30юв22210 0.0 10192461
18:00+23ююв01320 0.0 102011
21:00+19ю23650 0.0 102240
8 июля, пт
пт800:00+17юв37500 0.0 1023119
03:00+17вюв413710 0.0 1022362
06:00+17вюв514690 0.0 1023400
09:00+21вюв711480 0.0 1024535
12:00+28вюв56260 0.0 10231379
15:00+30вюв45180 0.0 10202388
18:00+23юв22280 0.0 102126
21:00+23в614440 0.0 1023805